Location: Dana
(41.8364°N, 106.7042°W)
Time: 14:57:27
(UTC+00:00)

Transit 2A - Pass Details

Date: 19 May 2026
Orbit: 595 x 948 km, 66.7° (Epoch: 8 June)

Event Time Altitude Azimuth Distance (km) Brightness Sun altitude
Rises 04:55:17 0° 341° (NNW) 3,213 10.6 -21.6°
Reaches altitude 10° 04:59:14 10° 10° (N) 2,194 9.0 -22.0°
Maximum altitude 05:01:23 13° 36° (NE) 1,971 8.4 -22.2°
Drops below altitude 10° 05:03:27 10° 62° (ENE) 2,100 8.2 -22.4°
Enters shadow 05:04:16 - 71° (ENE) 2,238 8.3 -22.5°
Sets 05:07:01 0° 92° (E) 2,939 - -22.8°
